User: anonymous   Login
Location: Bismarck
(46.7731°N, 100.8200°W)
Time: 00:10:54
(UTC-05:00)
Language:

Landsat 7 - Orbit

View from above orbital plane
View from above orbital plane
View from above satellite
View from above satellite

Ground track
Ground track

The orbit data is extracted from the following two-line orbital elements,

1 25682U 99020A   14295.81365832  .00000605  00000-0  14436-3 0  7305
2 25682 098.2283 003.7627 0001259 083.5694 276.5636 14.57101736825571
Epoch (UTC): 22 October 2014 19:31:40
Eccentricity: 0.0001259
inclination: 98.2283°
perigee height: 701 km
apogee height: 703 km
right ascension of ascending node: 3.7627°
argument of perigee: 83.5694°
revolutions per day: 14.57101736
mean anomaly at epoch: 276.5636°
orbit number at epoch: 82557

The dashed part of the orbit path shows where the satellite is in the earth's shadow,  

DLR